Wind_Speed
42 42 44 45 42 42 48 48 40 36 35 34 35 36 35 36 35 34 33 31 30 31 30 29 27 25 26 29 30 30 29 28 26 27 26 25 23 22 22 22 21 22 22 21 21 21 21 22 22 22 22 21 22 22 21 21 21 22 22 22 22 22 21 21 22 26 31 29 25 27 25 22 22 23 24 24 22 21 22 23 22 21 22 23 22
42 42 43 45 44 43 47 49 41 36 35 34 35 37 38 37 36 36 35 33 31 31 31 30 29 27 26 28 29 30 30 29 28 28 27 26 24 23 23 22 22 22 22 21 21 22 22 22 23 22 21 21 22 22 22 22 22 22 23 23 24 23 23 23 24 29 33 30 27 28 24 20 22 22 23 24 23 23 23 22 22 21 20 23 25
44 42 43 44 43 43 48 51 44 38 35 35 35 38 40 40 38 37 36 35 34 32 31 31 31 29 27 28 29 29 30 30 29 28 27 26 25 24 23 22 22 22 21 21 21 22 22 22 23 22 21 21 22 22 22 22 23 23 24 24 25 25 25 25 24 29 33 30 28 29 24 20 22 23 22 23 22 23 23 22 21 21 20 21 23
48 44 43 44 43 44 49 52 46 40 37 35 36 38 41 42 41 39 37 37 36 34 32 32 32 32 30 29 29 29 29 30 30 28 28 27 26 25 24 23 22 22 21 21 22 22 22 23 23 22 21 22 22 22 23 22 23 24 24 25 25 25 24 24 24 27 30 29 27 27 23 20 21 23 22 22 21 21 22 22 21 21 21 21 22
49 48 45 45 45 46 50 51 45 40 37 36 36 38 41 43 43 40 38 38 38 36 35 33 33 33 32 30 30 28 29 30 30 28 28 28 27 26 25 24 23 23 22 22 23 23 23 23 23 22 21 22 22 23 22 23 24 24 24 25 25 24 24 24 25 25 27 27 25 24 23 21 21 22 22 21 22 21 21 21 20 20 21 21 22
47 50 50 48 47 47 50 51 46 40 38 37 37 39 41 43 43 41 39 38 38 38 37 35 33 34 33 32 31 29 29 31 31 29 28 29 28 27 26 25 23 23 23 23 23 24 24 24 23 22 22 22 22 23 22 23 24 23 23 24 24 23 24 24 25 25 25 25 24 23 23 21 21 21 21 20 21 21 21 21 21 21 21 20 21
48 52 53 52 51 48 49 52 48 43 39 38 38 40 42 43 42 41 39 38 38 38 37 36 35 34 34 34 33 31 30 31 32 31 30 29 29 28 27 25 24 24 24 24 24 25 24 25 24 23 23 23 22 23 23 23 23 23 23 24 24 24 24 24 24 24 23 23 23 22 22 21 21 21 20 20 20 20 20 20 21 22 22 22 22
52 55 55 54 54 51 50 51 50 45 41 40 40 40 43 44 41 39 38 37 36 36 36 37 36 35 35 35 35 33 31 31 32 32 31 30 29 29 27 26 25 25 25 24 25 25 25 25 25 24 24 23 23 23 23 23 23 23 23 24 24 24 24 24 24 23 22 21 22 22 21 21 21 21 21 20 19 19 19 18 19 20 21 22 22
52 56 56 55 55 52 50 50 49 46 43 42 42 41 42 43 40 38 38 36 35 34 35 37 37 36 36 36 36 35 33 32 31 32 32 30 30 30 29 27 26 26 26 25 25 26 26 26 26 25 25 24 23 23 23 23 24 24 24 24 25 25 25 25 24 22 22 21 21 21 21 21 21 21 21 20 19 19 19 18 18 19 19 20 21
50 55 56 55 53 51 49 49 49 47 44 43 42 41 42 43 40 38 37 35 34 34 35 37 37 37 37 38 39 37 35 33 31 31 31 30 31 31 30 28 27 27 26 26 26 26 26 26 26 26 26 25 23 23 24 24 25 24 24 24 25 24 24 23 22 22 21 21 21 22 21 21 21 21 21 20 19 19 19 18 19 19 19 19 20
50 53 54 54 52 50 49 49 50 48 45 43 42 41 42 44 42 39 37 35 34 35 36 37 38 39 39 40 40 39 37 34 32 30 31 32 32 32 32 30 28 27 27 27 27 26 26 27 26 26 26 25 24 24 24 25 25 25 24 25 24 23 21 21 21 22 21 21 22 22 21 21 22 22 21 20 19 18 19 19 19 19 19 19 19
48 50 52 53 51 50 50 50 51 49 46 44 43 42 42 44 42 40 37 36 35 36 37 38 39 40 42 42 42 40 38 35 31 30 33 34 33 32 33 32 29 28 27 27 27 27 26 27 26 26 26 26 25 24 25 25 25 25 25 24 23 21 19 19 22 22 21 21 22 21 20 21 22 21 21 20 19 19 19 19 19 19 19 19 19
46 48 49 50 49 50 51 52 52 51 48 45 45 44 43 43 42 40 38 36 36 37 38 39 41 42 43 44 43 41 39 35 31 31 34 35 33 33 34 34 31 29 28 28 28 27 27 27 26 26 26 26 25 25 26 26 26 26 25 24 23 21 19 21 23 22 20 21 21 21 21 21 22 21 20 19 19 19 19 19 19 19 18 19 19
44 47 46 45 45 45 48 51 52 52 50 47 47 47 45 41 39 38 38 37 36 37 38 39 42 44 45 46 44 41 38 35 33 33 35 35 34 34 35 36 33 30 29 29 29 29 28 27 26 25 26 26 26 26 27 27 27 27 26 24 23 22 21 22 23 21 20 20 21 21 21 21 22 21 19 19 20 20 20 20 19 19 19 19 19
43 46 46 44 44 44 46 48 49 51 51 50 50 49 47 42 38 36 36 36 36 36 37 39 42 44 46 47 45 41 38 36 35 35 35 35 35 34 36 37 35 31 30 30 30 30 28 28 26 26 26 26 26 27 26 27 27 27 26 26 24 22 22 23 22 21 21 21 20 21 21 20 21 21 19 19 20 20 20 20 19 19 19 19 20
41 45 47 46 45 46 48 49 48 49 51 52 52 51 49 45 39 36 35 35 35 35 35 38 41 44 47 49 46 41 38 37 36 36 36 36 35 35 38 39 36 33 31 30 31 31 30 28 27 26 26 26 26 26 26 27 28 28 27 26 23 21 22 23 22 21 22 21 20 20 20 20 20 21 19 19 20 20 20 20 19 19 19 19 20
40 43 47 47 45 46 47 48 49 49 50 53 54 53 51 47 43 40 38 37 36 35 34 35 38 42 47 49 46 41 38 38 38 37 37 36 35 36 39 40 37 34 31 31 32 32 30 29 28 27 26 26 26 26 27 28 28 29 28 25 22 22 23 23 21 21 21 21 20 20 20 20 20 20 19 19 20 20 20 20 19 20 20 20 20
41 42 43 43 43 45 46 46 47 48 50 53 55 54 52 49 46 45 42 40 38 36 34 35 37 42 47 48 46 41 39 39 39 38 38 37 36 37 40 40 38 35 33 32 32 32 32 30 28 27 27 26 25 26 28 28 28 29 27 24 23 24 24 22 21 20 20 20 20 20 20 20 20 20 20 19 19 20 20 20 20 20 20 20 20
40 38 36 35 38 41 44 45 46 47 49 52 54 55 53 51 49 48 46 44 41 37 35 36 38 42 46 47 45 42 40 40 40 40 39 38 37 38 41 41 39 36 34 33 33 33 34 32 29 29 28 26 24 26 27 28 28 28 26 25 25 24 23 22 21 20 20 20 21 20 20 20 20 20 19 19 19 20 20 20 20 20 20 20 21
38 35 31 31 34 36 38 44 48 49 50 51 53 55 54 52 51 51 50 47 44 40 38 37 39 42 46 46 44 42 41 41 42 41 41 40 38 40 41 41 39 36 34 33 34 34 34 33 32 31 29 25 24 25 26 27 28 28 26 26 25 24 23 24 22 20 20 21 21 21 20 20 20 19 19 19 19 20 20 20 19 20 20 20 21
37 34 30 31 34 34 35 41 48 52 51 51 53 55 55 53 53 53 52 50 47 44 41 39 40 42 45 45 44 43 42 42 42 42 42 41 40 41 42 41 39 36 34 35 35 34 34 34 34 33 31 26 23 24 25 26 27 27 25 25 25 24 24 25 23 21 21 21 21 20 19 19 19 19 19 19 19 20 20 20 19 20 20 21 21
38 38 35 33 34 36 36 40 47 52 53 53 53 55 55 55 54 54 53 52 50 47 44 42 41 42 45 45 44 43 43 43 43 43 42 41 40 41 41 40 38 37 35 36 35 34 35 34 33 34 33 27 22 22 24 25 27 26 24 24 24 24 25 26 24 22 21 21 21 19 18 19 19 18 18 19 20 20 19 19 18 19 19 20 21
37 39 38 36 35 35 35 37 42 49 53 54 54 55 56 57 58 57 56 54 51 48 47 44 42 43 45 45 43 43 44 44 44 43 41 40 40 41 41 40 39 37 35 36 36 36 35 34 32 31 30 26 22 23 25 25 26 26 24 23 23 24 25 26 24 22 22 22 20 18 18 18 18 18 18 19 20 21 20 19 18 18 18 20 21
36 37 37 36 35 34 33 34 38 44 50 53 54 55 56 58 59 59 58 56 53 50 48 45 43 44 45 43 43 45 46 44 43 42 40 39 40 41 41 41 39 36 35 36 37 36 36 34 30 27 26 25 25 26 25 25 25 26 24 23 23 24 25 25 23 22 22 21 19 18 18 19 19 19 19 19 20 20 20 20 19 19 20 21 21
36 36 35 34 34 32 31 32 34 39 46 50 50 50 52 54 56 56 55 55 54 51 48 46 45 45 43 43 45 46 45 43 41 40 40 39 40 40 40 40 37 35 36 37 36 37 35 31 27 27 28 28 28 27 26 25 25 26 24 23 24 24 23 22 22 22 22 21 20 19 19 20 20 19 20 20 20 19 20 21 20 20 20 21 22
36 36 35 34 32 30 31 33 33 34 39 43 44 45 48 50 52 52 52 52 51 49 48 46 45 43 43 45 46 45 43 41 40 41 41 41 40 40 39 37 35 35 37 38 38 38 35 29 27 30 31 30 29 27 26 25 26 26 26 24 23 22 20 20 20 21 21 21 20 20 21 21 20 20 20 20 19 19 20 21 20 21 21 21 22
35 35 35 33 32 30 31 33 33 33 35 38 42 46 48 49 49 49 49 48 48 47 47 46 44 42 43 45 44 42 41 40 39 40 42 42 42 41 39 37 36 37 39 40 40 38 33 29 29 31 30 29 29 28 27 27 27 27 26 24 22 20 18 19 20 20 20 20 20 21 21 21 21 21 21 19 18 18 20 20 20 21 21 21 22
35 34 33 32 31 30 30 32 34 35 36 37 41 47 49 49 49 47 46 46 47 47 47 44 42 42 42 42 41 40 40 39 37 38 40 42 43 43 41 39 38 37 39 41 40 36 31 30 31 30 28 28 28 27 27 26 26 25 25 24 22 21 20 19 19 20 20 20 21 21 21 21 21 21 21 20 19 18 19 20 20 20 20 20 21
35 34 33 32 31 30 30 32 35 37 39 40 41 45 47 48 47 46 46 48 49 47 44 40 39 39 39 38 37 37 36 34 33 34 37 41 44 45 43 40 37 37 39 39 37 33 31 32 32 30 28 28 27 26 26 25 24 24 24 23 22 21 20 20 19 20 21 22 22 22 22 22 21 20 20 20 20 19 19 20 20 20 20 19 19
32 31 31 32 32 31 30 31 35 37 40 41 43 44 46 47 48 49 49 49 47 44 40 38 37 36 36 36 35 33 32 30 29 31 36 41 44 45 44 40 38 37 37 37 36 34 33 33 32 31 29 28 27 27 25 24 24 24 23 22 21 21 20 20 20 21 22 22 23 23 23 23 21 20 20 20 20 19 19 20 20 20 20 19 20
28 28 29 30 31 31 29 30 33 35 37 41 45 47 49 50 50 51 49 46 43 40 38 38 37 36 37 38 36 34 33 32 31 31 35 40 44 46 45 42 40 38 37 37 36 33 32 33 33 31 30 29 27 26 25 24 24 23 22 21 20 20 20 20 20 21 22 22 23 23 23 23 21 21 21 20 19 19 19 20 20 20 20 20 19
25 28 30 30 30 32 31 30 31 33 36 41 45 47 48 49 49 48 45 42 40 39 39 39 39 38 38 39 38 37 36 34 32 32 33 38 44 46 45 44 42 39 39 41 37 31 30 35 36 33 32 29 26 25 24 24 23 22 21 20 18 18 20 21 21 22 22 22 22 23 23 23 22 21 20 20 19 18 19 19 20 20 20 20 19
21 25 27 26 27 29 30 28 29 30 32 36 40 43 44 45 44 43 42 40 40 41 41 42 42 41 39 39 39 38 35 32 31 32 35 38 42 44 45 45 43 40 41 43 38 30 30 35 37 36 34 30 26 24 23 21 21 20 20 19 19 19 20 21 22 22 22 23 22 22 23 24 23 21 19 19 19 19 18 18 18 19 20 20 20
16 19 19 20 21 23 24 26 29 29 29 31 35 38 41 41 40 41 41 41 42 43 43 44 43 41 40 40 39 37 34 31 31 33 37 40 41 42 43 43 41 41 43 43 37 32 31 32 35 36 34 29 26 24 21 19 19 19 20 21 21 21 21 22 22 22 22 23 23 22 21 22 21 20 19 18 19 19 19 19 19 19 19 19 19
16 16 17 18 20 22 25 28 30 31 33 35 35 37 40 41 41 42 43 43 44 44 43 44 43 40 39 38 37 35 33 32 32 35 39 41 42 43 44 42 40 42 44 42 37 34 32 32 32 33 31 28 26 25 22 19 19 20 22 24 24 24 23 22 21 21 21 21 22 21 19 19 20 19 19 18 19 20 20 20 19 18 18 18 19
19 18 18 21 22 22 25 27 27 29 34 38 39 40 42 42 43 43 43 43 44 44 44 42 39 35 35 36 36 35 34 34 35 37 40 42 43 44 45 43 41 41 42 39 36 35 33 31 30 29 27 26 26 25 24 23 22 23 25 26 26 25 24 22 21 20 19 19 20 20 19 18 19 19 19 18 18 19 19 18 18 17 17 18 18
22 20 21 24 25 23 21 22 24 28 32 35 37 39 40 41 42 42 42 43 44 44 43 41 35 31 32 34 35 36 36 37 37 38 40 43 43 43 44 43 41 41 40 37 35 35 34 31 29 26 24 24 23 23 23 24 25 26 28 27 25 24 23 22 21 20 19 18 18 18 18 18 18 17 17 16 17 18 18 17 17 17 17 18 18
26 24 23 25 26 25 23 22 23 26 29 32 34 36 37 39 40 40 41 42 42 43 43 41 34 29 29 33 36 38 39 40 40 39 40 42 42 43 44 43 42 41 39 36 35 36 34 32 29 26 23 23 23 24 25 26 27 29 29 27 24 23 22 22 21 20 20 19 17 17 17 17 16 16 16 16 16 17 18 18 18 18 18 19 18
28 27 26 26 26 26 26 25 25 26 28 31 33 34 35 37 38 38 39 40 41 42 43 40 34 30 30 32 35 38 40 41 40 39 40 42 43 44 44 42 41 41 39 37 37 37 34 31 28 25 23 23 24 25 27 30 31 29 27 24 22 21 21 21 20 20 20 19 17 17 17 17 15 15 16 16 16 17 18 19 19 19 19 19 19
25 26 27 28 29 29 29 28 28 29 31 32 33 33 34 34 35 36 38 40 41 43 43 39 34 32 32 33 35 37 39 39 38 37 38 41 43 45 43 42 40 38 36 36 38 37 33 30 27 25 24 25 26 28 30 31 29 25 22 21 20 20 19 19 19 19 19 18 17 17 18 17 16 16 17 17 17 18 18 19 19 20 20 19 19
19 21 24 27 29 31 32 32 33 33 33 34 35 35 35 35 36 36 37 37 39 40 41 39 36 34 34 34 36 37 38 38 38 37 37 38 41 42 40 37 35 33 35 38 38 35 31 29 27 25 26 28 28 29 29 27 23 21 21 19 18 17 17 17 17 18 18 17 17 18 19 19 18 18 19 19 18 19 19 19 19 20 19 19 18
9 13 17 21 25 28 31 33 35 36 37 37 37 37 38 38 38 38 38 38 39 39 39 39 37 35 33 34 35 37 39 40 41 40 38 35 34 33 30 29 31 35 38 40 37 32 29 29 27 26 28 28 28 28 28 24 20 19 19 17 15 15 16 17 17 18 18 18 17 18 20 20 20 20 21 20 19 19 19 19 19 20 19 18 18
6 7 8 11 15 20 24 29 32 34 36 38 38 39 39 39 39 39 39 39 39 39 39 39 37 35 34 34 35 37 39 41 43 43 39 32 28 28 28 30 33 36 39 38 33 29 28 29 29 29 31 30 28 27 27 24 20 18 17 15 15 16 17 18 18 19 18 18 18 18 20 21 21 21 22 21 20 19 19 19 19 19 19 18 18
8 9 8 6 7 10 14 20 25 29 31 33 34 35 35 36 37 38 38 38 39 40 39 38 37 35 34 34 35 36 38 39 39 37 33 29 28 30 31 32 32 33 33 32 29 29 30 31 33 34 34 30 26 25 25 23 20 18 17 16 17 17 18 19 19 19 18 18 19 19 20 21 22 22 22 22 20 19 19 19 19 19 19 19 18
9 8 8 7 5 5 6 9 15 22 25 27 28 30 31 31 33 35 36 36 37 38 37 36 36 34 32 33 36 37 38 37 34 28 26 29 33 35 32 30 29 29 28 28 29 31 33 33 34 34 31 27 24 24 24 22 20 19 17 17 18 19 19 19 20 19 19 19 20 20 21 21 22 23 23 22 21 20 19 20 20 20 20 20 19
8 8 7 7 6 4 4 4 3 5 8 11 15 20 24 27 30 33 35 36 37 37 36 35 35 34 34 35 36 35 33 32 30 26 27 30 33 31 28 27 27 28 30 31 32 34 34 33 31 29 26 24 23 24 22 21 20 20 19 19 20 20 20 20 20 20 19 19 20 21 22 22 22 23 23 22 21 20 19 20 20 21 20 20 19
6 7 8 7 6 6 5 4 3 3 5 5 3 4 9 12 16 20 23 27 30 34 35 34 33 33 33 32 30 28 27 27 27 27 28 30 30 29 28 28 27 29 31 31 30 30 29 29 27 26 23 23 23 23 22 21 22 22 21 21 22 22 22 21 21 21 20 21 22 23 23 23 23 23 23 22 22 21 19 19 21 21 21 20 19
3 5 6 6 5 5 6 6 4 3 5 6 7 8 6 4 5 7 9 10 11 14 18 21 23 25 27 26 25 23 23 25 26 27 28 29 30 30 28 27 27 29 29 26 23 22 22 21 21 22 22 22 22 23 23 24 25 25 23 23 23 23 22 22 22 22 22 21 22 23 23 22 22 22 21 21 21 21 20 20 21 22 22 22 20
2 2 2 2 2 3 6 8 8 7 6 5 6 8 9 8 6 6 6 6 7 8 11 13 15 19 23 24 23 22 21 21 23 25 27 28 27 27 28 27 27 27 25 20 18 18 18 17 18 19 20 20 22 22 22 23 25 25 25 24 22 21 21 22 22 22 21 21 21 22 22 22 21 21 21 20 20 22 22 22 22 23 23 23 22
1 1 1 1 0 2 4 6 7 7 6 5 4 5 6 6 6 5 4 3 3 3 6 9 13 16 18 19 19 19 19 19 21 24 25 26 26 27 27 25 21 19 18 17 16 16 16 16 17 18 19 19 20 21 21 21 21 22 22 21 19 18 19 21 21 20 19 20 20 21 21 21 21 21 22 22 22 23 24 23 23 23 24 23 22
2 2 1 0 0 1 3 4 4 3 3 3 3 2 3 3 3 3 3 2 2 2 1 3 7 10 12 14 15 15 16 16 17 17 18 19 21 21 19 16 14 15 16 18 18 17 16 16 16 17 18 19 20 19 19 19 19 19 19 18 17 17 18 19 19 18 18 19 19 20 20 21 21 22 23 24 25 25 25 25 24 23 24 23 23
Wind_Direction
232 232 232 233 233 229 227 230 241 246 244 245 248 247 246 243 242 242 243 244 246 250 254 254 255 258 258 259 261 261 262 263 264 267 271 274 274 272 270 267 266 267 271 273 272 271 271 273 275 276 278 277 279 282 283 282 281 281 281 280 280 283 285 287 284 283 291 296 291 287 290 293 295 296 297 298 299 300 303 306 307 306 308 311 315
230 230 230 232 234 230 226 229 239 245 243 244 246 247 248 246 244 243 243 243 244 249 253 253 254 257 258 260 261 261 262 261 262 265 269 273 275 273 270 268 266 266 271 273 272 271 270 272 275 277 277 277 279 282 282 282 281 281 282 281 282 285 287 290 288 288 295 297 291 289 291 292 293 293 293 296 300 302 305 307 307 308 312 315 317
228 229 230 232 234 230 225 229 238 245 244 245 245 246 248 248 247 245 244 242 242 247 252 253 253 255 258 260 261 262 261 259 261 264 267 271 274 273 270 267 265 267 270 272 270 269 269 270 274 276 276 275 277 281 282 282 282 281 282 283 284 287 290 295 293 291 298 303 300 297 294 290 290 291 290 292 297 302 305 307 307 310 315 315 314
229 229 229 230 233 230 226 228 238 245 247 247 246 245 246 247 247 247 245 242 242 245 250 252 252 253 257 260 260 262 261 260 261 262 265 269 271 272 270 266 265 266 268 270 269 268 267 268 273 275 274 274 277 280 282 283 282 282 284 285 286 290 294 296 295 295 299 304 302 296 289 286 287 288 289 291 295 299 302 305 308 311 314 314 313
230 231 230 231 232 232 229 230 238 246 248 248 248 246 245 246 247 247 245 244 244 244 246 250 251 252 255 258 260 262 261 261 262 261 263 267 269 271 269 265 264 264 267 269 269 268 266 267 272 274 273 274 276 279 282 283 283 284 286 287 288 292 293 294 296 297 298 300 297 290 286 286 285 284 287 291 296 300 301 303 306 309 312 313 313
231 232 232 233 234 234 231 231 238 246 247 246 247 245 244 246 247 246 246 246 246 245 245 247 251 252 253 256 258 261 261 261 261 261 261 264 267 269 269 266 263 263 266 269 269 268 267 267 270 273 273 274 276 279 282 283 284 286 286 287 288 290 291 294 298 298 297 296 292 287 286 287 284 284 287 290 296 301 303 305 307 310 311 312 312
230 231 233 235 236 235 232 233 239 245 246 244 245 245 245 246 246 245 245 246 246 245 243 245 250 251 251 253 256 259 260 260 260 261 260 262 266 268 268 266 264 264 266 270 271 270 267 267 269 271 272 274 275 279 283 284 285 285 285 286 287 289 291 295 298 298 295 292 289 287 287 286 285 285 286 290 294 298 301 304 307 310 313 314 314
230 230 233 236 237 237 235 235 239 244 245 244 243 244 245 245 244 242 243 245 245 244 242 243 247 250 250 251 254 256 258 259 259 259 260 262 264 267 268 266 264 264 266 269 271 270 268 267 268 270 271 274 276 280 282 283 283 283 284 285 287 289 292 295 297 296 292 290 289 289 287 286 285 285 286 290 293 296 298 299 301 305 308 310 312
231 231 232 236 238 238 237 236 239 242 243 242 242 244 244 244 242 240 241 244 244 242 240 241 245 248 249 250 251 253 256 258 259 258 260 262 263 266 267 266 264 263 264 268 270 270 269 267 268 269 270 274 277 279 280 281 282 283 284 286 288 291 293 295 296 294 291 290 289 288 287 285 284 284 286 289 292 295 297 297 297 300 303 305 308
231 232 232 235 237 238 237 236 237 239 241 240 241 243 244 242 240 240 242 243 243 241 238 239 243 246 247 248 250 251 253 257 259 259 260 261 262 264 265 264 263 262 263 267 269 270 269 268 268 269 271 274 276 277 279 279 280 282 284 286 289 292 294 295 296 294 292 290 288 287 286 284 285 285 285 288 292 295 296 297 298 300 302 305 306
229 230 233 235 237 237 237 235 235 238 240 239 239 242 243 241 240 241 242 241 241 240 238 239 242 244 246 247 248 250 252 255 260 260 258 259 260 261 263 264 262 262 263 265 268 270 269 268 269 270 271 273 275 276 277 278 279 282 283 287 291 292 294 296 297 294 291 287 286 285 283 283 286 286 285 288 292 293 294 295 297 299 302 304 307
231 232 234 236 238 237 236 235 234 237 239 238 237 240 242 242 242 242 241 240 240 239 238 240 241 243 244 245 247 249 250 254 260 259 255 257 258 259 261 263 262 261 261 263 266 268 268 269 270 270 271 273 274 275 276 276 278 280 282 287 290 290 293 298 299 295 289 285 283 282 281 283 287 286 284 287 291 293 292 292 294 298 301 303 306
232 234 235 236 238 238 237 236 235 236 238 237 236 238 240 241 243 243 242 241 240 239 240 242 243 243 244 245 245 246 248 252 257 256 254 256 257 257 259 261 261 260 260 261 264 266 267 269 270 269 270 271 272 273 274 276 278 279 282 287 289 289 292 298 298 293 286 283 282 280 281 284 285 284 283 286 290 292 292 292 294 297 299 302 304
232 234 233 232 234 235 236 237 236 237 239 237 236 237 238 239 242 245 243 241 240 240 242 244 244 244 245 246 245 245 247 249 253 255 255 256 256 255 257 260 260 259 258 258 260 263 265 267 268 268 269 270 271 272 273 276 277 279 282 285 287 289 291 296 298 292 286 283 280 280 283 285 284 283 283 285 287 290 291 292 294 297 299 302 305
231 233 231 230 230 231 233 235 236 237 239 238 236 236 237 237 239 242 242 241 240 241 243 245 245 244 245 246 245 244 244 246 250 254 256 256 255 253 255 257 258 257 256 256 258 261 263 266 267 267 268 268 269 270 272 275 276 277 281 284 285 286 289 294 295 291 285 282 279 282 287 286 282 281 282 284 286 289 291 291 293 296 299 302 305
230 232 232 231 232 233 234 234 235 237 238 238 236 235 236 236 237 240 240 239 239 241 244 248 248 246 246 246 245 243 243 244 248 252 255 256 254 251 252 255 257 257 255 255 257 259 261 264 266 268 268 268 268 270 271 273 274 276 279 280 279 282 288 293 293 289 283 279 278 283 286 283 280 281 283 285 286 290 291 291 293 295 297 300 304
227 231 233 233 234 236 236 236 236 237 238 238 236 235 235 235 236 239 241 240 242 245 248 252 252 248 246 245 244 242 241 243 246 251 254 255 253 250 250 253 256 257 256 255 256 257 259 262 264 266 267 268 268 269 270 271 273 276 279 278 278 283 289 291 291 288 282 276 277 281 284 282 280 281 282 283 286 290 291 292 293 294 297 300 303
222 226 230 232 233 235 237 237 236 237 237 238 237 236 235 235 236 240 242 243 245 248 251 255 255 250 246 245 244 242 241 242 244 249 253 254 252 249 249 252 254 255 256 255 255 256 257 258 261 264 266 268 268 269 270 272 273 276 279 278 279 283 287 289 290 288 282 277 277 280 282 281 279 280 281 282 285 289 290 292 294 294 297 300 302
218 217 221 227 231 234 236 236 236 235 235 237 238 237 235 235 237 240 243 244 245 248 252 255 255 251 246 244 244 242 241 241 243 248 252 252 250 247 247 250 253 254 255 255 254 255 255 256 258 260 263 265 267 268 270 272 274 277 279 279 279 282 284 286 289 288 284 280 279 280 281 280 278 280 281 281 285 287 289 291 292 293 296 299 301
223 218 217 225 231 234 236 235 234 234 233 235 236 237 236 235 237 240 242 244 245 246 250 255 255 250 246 244 243 241 240 240 243 247 251 251 248 245 246 249 251 252 254 254 254 255 255 256 257 257 259 261 264 267 269 272 274 276 277 277 277 279 282 285 287 288 285 281 279 280 281 279 279 280 280 282 284 286 288 290 291 293 295 298 301
229 228 224 224 230 236 237 234 232 232 232 233 234 235 235 235 236 239 241 243 245 245 249 255 255 249 245 244 241 240 240 241 243 247 250 251 247 244 244 247 249 251 252 254 255 255 256 258 258 257 257 255 256 264 269 270 272 273 273 273 276 279 280 282 286 287 283 277 275 277 278 277 277 279 280 282 282 283 287 290 292 294 295 298 300
228 230 230 228 231 237 238 233 230 230 229 231 234 234 235 236 237 238 240 242 244 244 248 253 252 246 244 243 239 238 240 241 242 245 248 248 245 243 244 246 248 250 251 254 255 254 255 257 257 257 257 254 253 261 266 267 270 272 271 272 276 278 277 280 285 285 279 274 272 272 272 273 275 277 280 282 282 284 287 289 291 292 293 296 298
224 227 229 230 232 235 236 231 228 228 228 230 232 233 233 234 235 236 238 241 242 243 247 251 248 243 242 241 237 237 240 242 244 246 248 246 243 242 243 244 246 249 252 254 253 251 252 255 257 258 259 257 256 261 265 266 268 270 270 271 274 275 276 281 286 281 274 271 269 267 268 271 275 279 283 284 284 286 290 292 295 297 297 298 301
218 222 223 225 229 233 233 226 222 225 228 228 230 231 231 232 232 233 235 238 241 243 246 247 243 240 239 238 237 238 241 245 247 248 249 246 241 240 240 242 244 248 251 252 251 251 253 255 257 257 255 253 256 261 265 266 266 267 269 271 275 277 278 282 283 276 269 267 266 265 267 270 276 281 284 285 286 290 294 297 301 304 305 306 307
209 216 218 222 228 230 228 221 217 220 225 227 228 229 229 229 230 231 232 235 238 241 243 241 238 236 236 238 239 241 245 248 249 247 245 242 239 237 237 238 242 246 248 250 252 254 255 255 254 252 251 252 256 262 267 268 266 266 268 272 277 280 279 278 276 272 267 265 263 264 266 270 276 280 282 285 289 292 295 297 301 304 305 306 307
204 210 216 222 225 223 220 218 216 218 223 226 227 226 225 226 227 228 229 232 234 237 237 236 233 232 235 239 242 245 247 249 247 244 241 238 235 233 234 236 238 242 247 250 252 254 256 255 253 252 253 254 258 263 267 266 264 265 269 273 278 280 274 269 269 269 267 264 262 262 264 269 275 280 282 285 288 290 293 295 299 302 304 306 309
209 208 213 217 218 218 218 217 216 218 221 224 224 223 222 222 223 224 226 228 230 232 231 230 229 231 237 242 244 246 248 249 247 243 240 237 234 231 232 234 236 241 246 249 251 254 257 256 254 254 254 254 257 263 267 267 267 269 271 273 276 272 263 261 265 267 268 266 263 261 262 268 277 281 284 286 286 286 289 293 297 301 304 306 307
216 212 211 214 216 217 217 215 213 215 217 220 221 221 220 220 220 222 224 225 227 228 227 226 228 234 239 242 244 246 249 251 250 246 241 238 236 234 234 235 237 242 247 250 253 257 259 257 255 253 251 252 258 264 268 269 269 270 271 271 269 262 256 258 263 266 268 268 264 261 262 268 276 279 280 283 285 285 287 292 297 299 300 301 303
219 215 210 210 213 215 215 213 214 216 217 219 221 219 219 219 220 220 221 222 223 223 224 227 232 237 240 241 244 248 251 253 253 248 241 236 235 237 239 240 241 244 249 255 259 259 256 254 252 247 245 250 258 263 264 265 266 267 268 268 264 258 255 258 263 266 267 266 262 260 261 266 271 274 276 280 284 287 290 294 297 298 298 299 301
219 218 212 208 210 214 215 213 215 218 219 220 219 217 216 217 217 217 218 218 218 220 224 228 232 235 237 239 241 243 245 246 245 243 238 233 233 237 239 241 244 246 250 257 262 259 254 250 244 239 242 250 257 259 260 262 263 264 264 263 260 257 255 257 262 265 266 266 262 259 259 263 267 271 273 277 281 286 291 294 295 296 297 298 299
220 220 219 214 212 215 216 213 213 216 218 219 217 216 215 214 213 214 214 214 216 220 223 227 229 231 234 237 238 237 238 237 236 236 234 231 232 235 236 237 241 245 249 255 256 251 245 239 235 236 242 250 256 258 259 260 261 262 262 260 258 258 259 260 263 264 265 265 262 259 259 260 262 267 271 275 280 286 289 292 293 295 296 298 299
231 224 220 215 212 212 210 210 211 213 215 217 217 216 215 213 210 210 211 214 218 222 224 227 229 231 233 237 238 239 239 238 236 234 232 230 231 234 236 237 239 242 245 247 246 240 235 233 233 236 242 249 255 257 256 257 259 262 264 263 260 260 262 264 265 265 265 265 263 260 259 258 260 265 270 275 279 283 285 288 291 293 294 296 297
243 234 223 216 215 212 207 206 209 210 210 211 212 211 210 208 208 209 212 216 220 223 226 228 231 232 233 236 239 241 240 239 236 233 230 228 229 231 233 236 239 241 242 241 239 237 236 235 234 236 241 248 253 252 251 255 260 262 265 267 265 263 262 262 263 265 267 269 268 265 261 259 261 265 270 274 279 281 283 285 286 287 289 291 294
256 253 240 226 222 220 212 207 207 206 204 204 205 205 206 207 210 213 216 220 224 227 230 233 234 234 236 238 239 240 239 238 237 233 229 228 229 230 230 233 236 238 238 237 237 238 241 239 237 238 242 246 248 248 251 257 261 262 265 268 267 264 261 259 261 265 269 273 274 271 265 261 260 264 268 273 277 280 282 283 281 282 284 287 290
254 255 252 238 228 223 217 212 208 206 205 205 206 207 209 212 215 218 221 224 227 230 233 235 236 238 240 241 242 242 241 240 238 234 229 225 225 227 227 227 227 230 232 231 230 234 238 238 237 239 242 244 246 250 255 260 262 263 267 270 270 266 260 257 260 265 271 275 275 273 267 261 258 260 266 270 275 280 283 284 281 281 282 285 288
250 247 249 246 241 233 223 216 214 212 211 210 210 212 214 217 220 223 224 226 229 232 234 236 237 238 240 243 244 244 244 243 241 236 231 225 222 224 225 224 224 227 230 230 229 232 235 235 236 239 243 246 248 252 258 262 264 264 268 273 274 268 260 258 260 268 276 278 276 274 269 261 257 260 265 270 274 278 282 283 281 280 283 286 288
255 251 245 243 249 253 243 228 223 222 220 218 217 218 220 221 223 225 227 229 231 234 236 239 239 237 237 241 242 241 242 243 241 237 232 229 227 226 226 225 224 226 228 228 230 234 235 235 238 243 248 251 253 257 262 264 263 265 269 273 274 268 262 260 263 271 279 281 277 274 270 263 259 260 264 269 272 274 276 278 279 280 282 285 287
261 261 254 246 248 254 255 246 236 231 229 228 227 226 227 227 228 229 231 233 236 238 240 242 243 241 240 241 241 240 240 243 242 237 233 231 229 228 226 225 225 226 226 227 231 233 234 236 239 243 248 253 257 261 263 261 261 264 269 272 272 268 264 261 263 270 277 278 274 270 266 261 257 257 261 264 266 268 271 274 277 278 280 283 284
261 261 258 254 251 249 249 249 245 240 237 235 235 235 236 236 236 237 237 238 240 243 245 245 245 243 242 242 242 241 241 244 246 243 238 234 231 228 227 226 225 225 225 226 229 231 231 233 237 242 248 254 256 257 258 260 262 265 268 269 268 266 263 261 262 266 271 272 269 263 258 254 251 251 255 259 260 263 268 272 274 276 278 280 282
254 254 253 253 251 248 246 245 244 243 242 241 241 242 242 243 243 243 243 244 244 245 247 248 246 244 245 247 247 245 244 246 248 246 242 237 233 229 229 231 232 227 221 223 228 231 231 233 236 239 244 249 251 252 254 259 263 266 265 263 263 262 260 259 259 261 264 265 262 255 250 246 244 245 250 254 257 261 265 269 272 274 276 277 279
246 247 246 246 246 245 243 242 241 241 242 243 244 245 245 245 246 245 246 246 247 248 250 249 248 246 246 247 248 247 247 247 246 243 242 240 236 234 236 238 232 219 212 217 225 229 229 232 237 240 243 246 249 250 253 257 263 263 259 257 258 258 257 256 254 255 258 258 256 252 247 242 239 241 246 249 253 260 266 269 270 272 274 275 276
253 253 248 245 243 242 241 240 239 239 240 241 243 244 244 245 246 246 246 246 247 248 248 248 248 247 244 242 245 247 245 243 241 241 242 240 234 229 227 223 217 213 214 220 224 225 226 230 236 241 244 246 247 249 252 259 263 258 252 253 256 257 257 256 253 254 256 256 254 251 248 243 240 239 242 246 251 258 265 269 270 271 273 273 272
334 316 288 264 253 248 244 241 239 238 239 239 241 242 244 244 245 245 246 246 246 246 246 245 246 244 239 238 243 245 242 240 239 238 235 231 222 214 211 211 214 219 222 222 219 219 224 229 232 236 241 245 247 249 253 258 256 247 244 251 257 257 258 259 257 256 255 254 252 249 247 246 244 241 241 246 251 257 263 267 268 269 270 269 269
352 350 345 327 296 275 262 252 246 242 241 241 241 241 243 244 244 245 246 246 246 246 246 245 245 243 237 237 240 241 238 238 236 229 221 212 206 206 211 214 217 220 222 220 217 219 225 229 232 235 240 243 246 249 252 250 242 236 239 249 254 255 257 259 259 257 255 254 252 248 245 244 245 244 243 245 250 255 261 265 267 267 266 265 265
349 349 349 349 347 337 315 286 261 246 241 242 243 243 243 245 245 246 246 245 245 245 245 244 243 239 234 235 238 238 234 231 226 217 206 200 201 204 211 215 215 215 218 220 220 221 226 231 236 241 244 246 248 250 248 240 232 232 240 247 251 252 255 256 258 260 259 257 255 252 248 245 245 246 247 247 249 254 260 264 265 265 263 260 261
352 356 358 2 7 5 354 343 306 241 229 234 238 237 237 239 241 243 244 243 241 240 239 238 236 233 231 232 232 228 222 215 207 195 188 192 197 202 208 212 212 213 217 220 223 226 230 235 241 246 250 251 249 246 240 232 227 231 238 243 246 250 253 254 258 263 264 261 258 255 251 248 246 246 248 249 251 256 261 264 266 266 262 258 257
336 352 2 4 3 356 347 344 4 56 69 69 94 190 208 217 222 226 230 232 231 229 227 226 224 224 222 218 213 207 202 196 189 183 183 189 195 201 207 211 214 218 223 226 228 230 233 236 241 248 254 253 245 234 226 223 226 231 236 240 244 248 252 254 258 262 263 261 260 257 254 252 250 248 249 252 256 260 265 267 267 266 262 256 253
321 345 358 357 2 17 22 15 5 17 41 48 52 58 70 100 144 157 164 174 184 192 197 199 202 202 197 191 190 194 196 193 188 188 193 197 198 201 207 214 219 225 229 230 229 229 232 236 242 248 250 247 238 227 223 225 229 232 234 238 241 245 250 254 258 261 262 261 260 260 258 255 252 250 250 254 260 265 268 269 268 266 261 254 250
76 71 46 37 47 55 48 42 36 30 30 35 41 46 51 58 70 88 106 113 115 129 149 164 170 173 173 176 183 193 198 197 196 199 204 206 205 207 213 219 221 224 227 228 227 232 238 241 242 243 242 239 234 231 234 239 240 236 233 234 239 245 251 256 259 261 260 258 256 256 256 255 254 254 255 258 263 267 271 272 269 265 259 253 248
44 143 147 139 343 335 353 13 26 27 27 34 42 42 44 51 58 63 65 57 56 99 144 163 170 172 177 185 194 201 205 207 206 206 209 214 216 218 221 222 218 214 216 222 227 233 237 238 237 236 236 235 235 236 240 244 243 236 231 234 242 249 255 259 261 259 256 253 252 253 254 256 258 262 265 267 269 272 275 274 269 263 257 252 246
306 309 291 184 111 5 9 32 53 55 50 60 73 73 57 47 46 55 68 66 29 22 89 164 175 181 188 198 207 210 210 208 205 202 204 209 211 212 214 216 212 211 217 221 223 226 232 235 235 233 232 235 238 240 239 239 237 233 234 242 251 255 257 260 260 257 255 255 255 255 256 259 262 266 269 272 274 274 274 271 265 258 253 249 245
Height
3095 3098 3101 3103 3106 3108 3112 3115 3117 3119 3119 3120 3120 3122 3123 3125 3127 3129 3130 3132 3133 3134 3135 3136 3137 3138 3138 3138 3138 3139 3139 3140 3140 3141 3141 3141 3141 3141 3141 3142 3142 3142 3142 3143 3143 3143 3143 3143 3143 3143 3143 3144 3144 3144 3144 3144 3144 3144 3143 3142 3142 3141 3140 3140 3139 3136 3134 3135 3134 3131 3131 3130 3128 3127 3125 3124 3124 3123 3122 3121 3120 3119 3116 3114 3113
3090 3093 3096 3099 3101 3104 3108 3111 3113 3114 3115 3116 3117 3118 3119 3121 3123 3124 3126 3128 3130 3130 3132 3133 3134 3135 3135 3136 3136 3136 3136 3137 3137 3138 3138 3138 3138 3139 3139 3139 3140 3140 3140 3140 3140 3140 3141 3141 3141 3141 3141 3141 3141 3141 3141 3142 3142 3141 3141 3140 3139 3139 3138 3138 3137 3133 3131 3133 3132 3129 3128 3127 3126 3125 3123 3122 3121 3121 3120 3119 3118 3117 3115 3112 3110
3086 3089 3092 3095 3097 3100 3103 3106 3108 3110 3111 3112 3113 3114 3116 3117 3119 3120 3122 3124 3125 3127 3128 3130 3131 3131 3132 3133 3133 3133 3134 3134 3134 3135 3136 3136 3136 3136 3137 3137 3137 3137 3137 3138 3138 3138 3138 3139 3138 3139 3140 3140 3139 3139 3139 3140 3139 3139 3138 3138 3137 3137 3136 3136 3135 3131 3129 3130 3129 3127 3126 3125 3124 3123 3122 3121 3120 3119 3117 3117 3116 3114 3113 3111 3108
3081 3084 3087 3090 3092 3095 3098 3101 3104 3105 3107 3108 3110 3111 3112 3113 3115 3117 3119 3120 3121 3123 3125 3126 3127 3128 3129 3130 3130 3130 3131 3131 3131 3132 3133 3133 3133 3133 3134 3134 3134 3135 3135 3135 3136 3136 3136 3136 3136 3137 3138 3138 3138 3137 3137 3137 3137 3137 3136 3136 3135 3134 3134 3133 3132 3130 3127 3127 3126 3124 3124 3123 3122 3121 3120 3119 3118 3117 3116 3115 3114 3112 3111 3110 3108
3075 3079 3082 3085 3088 3090 3093 3097 3099 3101 3103 3105 3106 3107 3108 3109 3110 3112 3115 3116 3117 3119 3121 3122 3123 3124 3125 3126 3127 3127 3128 3128 3128 3129 3130 3130 3130 3131 3131 3132 3132 3132 3133 3133 3133 3133 3134 3134 3134 3135 3135 3135 3135 3135 3135 3135 3135 3134 3134 3133 3133 3132 3131 3130 3129 3128 3126 3124 3123 3122 3121 3121 3120 3119 3118 3117 3116 3115 3114 3113 3112 3110 3109 3108 3106
3070 3074 3077 3080 3083 3086 3089 3092 3095 3097 3099 3101 3102 3103 3104 3105 3106 3108 3110 3112 3113 3115 3116 3118 3120 3121 3122 3123 3123 3124 3125 3125 3125 3126 3127 3127 3128 3128 3128 3129 3129 3130 3130 3130 3130 3131 3131 3132 3132 3133 3133 3133 3133 3133 3133 3133 3132 3132 3132 3131 3130 3130 3129 3127 3126 3125 3124 3122 3121 3120 3119 3119 3118 3118 3117 3116 3114 3113 3112 3111 3109 3108 3107 3106 3104
3066 3069 3072 3075 3078 3081 3085 3088 3091 3093 3095 3097 3098 3098 3099 3100 3102 3104 3106 3107 3109 3111 3112 3114 3116 3117 3118 3119 3120 3121 3121 3122 3122 3123 3124 3124 3125 3125 3125 3126 3127 3127 3127 3127 3128 3128 3129 3129 3130 3130 3130 3131 3131 3130 3131 3131 3130 3130 3129 3128 3128 3127 3126 3125 3124 3122 3121 3120 3119 3118 3117 3117 3116 3115 3115 3114 3113 3112 3110 3109 3107 3106 3104 3103 3102
3061 3063 3066 3069 3072 3076 3080 3083 3087 3089 3091 3092 3093 3094 3095 3096 3098 3100 3101 3103 3105 3107 3108 3110 3112 3113 3115 3116 3116 3117 3118 3118 3119 3119 3120 3121 3122 3122 3123 3123 3124 3124 3124 3125 3125 3126 3126 3127 3127 3128 3128 3128 3128 3128 3128 3128 3127 3127 3127 3126 3125 3124 3123 3122 3121 3120 3119 3118 3117 3116 3115 3114 3114 3113 3112 3112 3111 3110 3109 3108 3106 3104 3103 3101 3100
3055 3058 3061 3064 3067 3071 3076 3079 3081 3084 3085 3087 3088 3089 3090 3092 3094 3095 3097 3099 3101 3103 3104 3105 3107 3109 3110 3112 3113 3114 3114 3115 3115 3116 3117 3118 3119 3119 3120 3121 3121 3121 3122 3122 3123 3123 3124 3124 3125 3125 3125 3126 3126 3126 3126 3125 3125 3124 3124 3123 3123 3122 3121 3119 3118 3117 3116 3115 3114 3113 3113 3112 3112 3111 3110 3110 3109 3108 3107 3106 3105 3103 3102 3100 3099
3049 3052 3055 3058 3062 3067 3070 3073 3076 3078 3080 3082 3084 3085 3086 3087 3089 3091 3093 3096 3097 3098 3100 3101 3103 3105 3106 3107 3108 3110 3111 3111 3112 3113 3114 3115 3116 3116 3117 3118 3118 3118 3119 3119 3120 3120 3121 3121 3122 3122 3123 3123 3123 3123 3123 3123 3122 3122 3121 3121 3120 3119 3118 3117 3116 3115 3114 3113 3112 3111 3111 3110 3109 3109 3108 3108 3107 3106 3105 3104 3103 3101 3100 3099 3097
3042 3046 3049 3053 3057 3061 3065 3067 3070 3072 3075 3077 3079 3080 3081 3083 3085 3087 3089 3091 3092 3094 3095 3096 3098 3100 3101 3103 3104 3106 3107 3108 3109 3110 3111 3112 3113 3113 3114 3114 3115 3115 3116 3117 3117 3118 3118 3118 3119 3120 3120 3120 3121 3120 3120 3120 3119 3119 3118 3118 3117 3117 3116 3115 3114 3113 3112 3111 3110 3110 3109 3108 3107 3107 3106 3105 3105 3104 3103 3102 3101 3099 3098 3097 3096
3036 3040 3044 3047 3051 3056 3058 3061 3064 3067 3069 3072 3074 3076 3077 3078 3081 3083 3084 3086 3088 3089 3091 3092 3094 3096 3097 3098 3100 3102 3103 3104 3106 3107 3108 3108 3109 3110 3111 3111 3112 3112 3113 3114 3114 3114 3115 3115 3116 3117 3117 3117 3118 3118 3117 3117 3117 3116 3116 3115 3115 3114 3114 3113 3112 3111 3110 3109 3108 3108 3107 3106 3105 3105 3104 3103 3103 3102 3101 3100 3099 3097 3096 3095 3094
3032 3035 3039 3042 3046 3050 3052 3054 3058 3061 3064 3067 3069 3070 3072 3074 3077 3079 3080 3082 3084 3085 3087 3088 3090 3092 3093 3094 3096 3097 3099 3102 3103 3104 3104 3104 3106 3107 3107 3108 3108 3109 3110 3110 3111 3111 3112 3112 3113 3114 3114 3114 3115 3115 3115 3114 3114 3113 3113 3113 3112 3112 3111 3111 3110 3109 3108 3106 3106 3105 3105 3104 3103 3103 3102 3102 3101 3100 3099 3098 3097 3095 3094 3093 3092
3027 3031 3034 3037 3041 3044 3046 3049 3053 3056 3059 3062 3064 3065 3067 3070 3073 3074 3076 3078 3079 3081 3083 3084 3086 3087 3089 3090 3092 3094 3096 3099 3100 3100 3100 3100 3102 3103 3104 3104 3105 3105 3106 3107 3107 3108 3108 3108 3109 3110 3111 3111 3111 3111 3112 3111 3111 3111 3110 3110 3109 3109 3109 3108 3107 3106 3105 3104 3103 3103 3102 3102 3101 3100 3100 3100 3099 3098 3097 3096 3095 3093 3092 3091 3090
3023 3026 3029 3032 3035 3038 3040 3043 3047 3050 3053 3056 3058 3060 3063 3066 3069 3070 3072 3073 3075 3077 3079 3080 3081 3084 3085 3086 3087 3090 3093 3095 3096 3096 3095 3096 3098 3099 3100 3100 3100 3102 3102 3103 3103 3104 3105 3105 3106 3107 3107 3108 3108 3108 3108 3108 3108 3108 3107 3107 3106 3106 3106 3105 3104 3103 3101 3101 3100 3100 3100 3099 3098 3098 3098 3098 3097 3096 3095 3094 3093 3091 3090 3089 3087
3018 3020 3023 3026 3030 3032 3034 3038 3041 3044 3047 3050 3052 3055 3058 3061 3065 3066 3068 3069 3071 3072 3074 3075 3077 3079 3080 3081 3083 3086 3089 3091 3092 3091 3091 3092 3094 3095 3095 3095 3096 3098 3099 3099 3100 3100 3101 3102 3103 3104 3105 3105 3105 3105 3105 3105 3105 3104 3104 3104 3103 3103 3102 3102 3101 3099 3098 3098 3098 3097 3097 3097 3096 3096 3096 3096 3095 3094 3093 3092 3091 3089 3088 3087 3086
3014 3016 3018 3021 3024 3026 3029 3032 3035 3038 3041 3044 3047 3050 3054 3057 3060 3062 3063 3065 3066 3068 3070 3071 3073 3075 3075 3076 3079 3082 3085 3087 3087 3087 3087 3088 3089 3090 3090 3091 3092 3094 3095 3095 3096 3097 3098 3099 3100 3101 3102 3102 3102 3102 3102 3102 3101 3101 3101 3101 3100 3099 3099 3099 3097 3096 3096 3095 3095 3095 3095 3094 3094 3093 3093 3093 3093 3092 3091 3090 3089 3087 3086 3085 3084
3008 3011 3013 3016 3019 3021 3024 3027 3030 3033 3035 3038 3041 3045 3049 3052 3055 3057 3058 3060 3062 3064 3066 3067 3069 3070 3071 3072 3075 3078 3081 3082 3083 3082 3083 3084 3085 3086 3086 3087 3089 3090 3091 3092 3092 3093 3094 3095 3096 3097 3098 3099 3099 3099 3098 3098 3098 3098 3098 3097 3097 3096 3096 3096 3095 3094 3093 3093 3093 3093 3093 3092 3092 3091 3091 3091 3090 3090 3089 3088 3087 3085 3084 3083 3082
3002 3005 3008 3012 3014 3017 3019 3022 3025 3027 3030 3032 3036 3040 3043 3047 3050 3052 3053 3055 3057 3059 3061 3063 3064 3066 3067 3069 3071 3074 3076 3078 3078 3078 3078 3079 3081 3081 3081 3082 3084 3086 3087 3088 3089 3089 3090 3092 3093 3094 3094 3095 3096 3095 3095 3095 3095 3095 3094 3094 3094 3093 3093 3093 3092 3091 3091 3091 3091 3091 3090 3090 3089 3089 3089 3088 3088 3088 3087 3086 3085 3083 3082 3082 3080
2996 2999 3002 3006 3009 3011 3014 3017 3018 3020 3023 3026 3030 3034 3038 3042 3044 3046 3048 3050 3052 3055 3057 3058 3060 3062 3063 3065 3067 3069 3071 3073 3073 3073 3074 3075 3076 3077 3077 3078 3080 3082 3084 3084 3085 3086 3087 3089 3090 3090 3091 3092 3093 3092 3092 3092 3092 3091 3091 3091 3091 3091 3091 3090 3090 3089 3089 3089 3089 3089 3088 3088 3087 3087 3087 3086 3086 3085 3085 3084 3083 3082 3080 3080 3078
2992 2993 2996 2999 3002 3005 3007 3009 3011 3013 3017 3020 3023 3027 3032 3036 3038 3040 3043 3044 3047 3050 3053 3054 3056 3057 3058 3060 3062 3064 3066 3068 3069 3069 3069 3070 3071 3072 3072 3074 3077 3079 3080 3080 3081 3082 3084 3085 3086 3086 3086 3087 3088 3089 3089 3089 3088 3088 3088 3088 3089 3089 3088 3088 3087 3087 3087 3087 3087 3086 3086 3086 3085 3085 3084 3084 3083 3083 3083 3082 3081 3080 3078 3078 3076
2988 2989 2992 2995 2997 2999 3001 3002 3004 3007 3009 3013 3017 3021 3026 3029 3031 3034 3037 3038 3041 3045 3048 3050 3051 3053 3054 3056 3058 3059 3061 3062 3063 3064 3064 3065 3066 3067 3068 3071 3073 3075 3076 3076 3078 3079 3079 3080 3082 3082 3082 3082 3084 3085 3085 3085 3085 3085 3086 3086 3086 3086 3086 3084 3084 3084 3084 3084 3084 3084 3084 3083 3083 3082 3082 3081 3081 3081 3080 3080 3079 3078 3077 3076 3074
2984 2985 2988 2990 2992 2993 2994 2995 2997 3000 3003 3006 3010 3015 3019 3022 3025 3028 3030 3033 3036 3040 3043 3045 3047 3048 3049 3051 3053 3054 3056 3057 3058 3059 3060 3061 3062 3063 3065 3067 3069 3071 3072 3073 3073 3073 3074 3076 3078 3079 3078 3079 3081 3081 3081 3082 3082 3082 3083 3084 3084 3083 3082 3081 3081 3082 3082 3081 3081 3081 3081 3081 3081 3080 3079 3079 3078 3078 3077 3077 3076 3075 3074 3073 3072
2978 2981 2983 2985 2986 2987 2988 2990 2991 2994 2996 3000 3004 3008 3012 3015 3017 3021 3024 3027 3031 3035 3037 3040 3042 3043 3044 3046 3048 3049 3050 3053 3054 3055 3056 3057 3058 3059 3061 3063 3065 3067 3067 3067 3068 3069 3071 3073 3075 3075 3075 3076 3077 3077 3078 3079 3079 3079 3080 3080 3080 3080 3079 3078 3078 3079 3079 3079 3079 3079 3079 3079 3078 3077 3077 3076 3075 3075 3074 3073 3073 3072 3071 3070 3069
2970 2975 2977 2979 2981 2982 2983 2984 2986 2987 2990 2994 2997 3001 3005 3008 3011 3015 3019 3022 3026 3030 3033 3035 3036 3038 3040 3042 3043 3043 3046 3049 3051 3051 3051 3053 3054 3056 3057 3058 3061 3063 3062 3063 3064 3066 3067 3069 3071 3071 3072 3072 3073 3074 3075 3075 3075 3076 3076 3077 3077 3076 3076 3075 3075 3076 3076 3076 3076 3076 3076 3076 3076 3075 3074 3073 3073 3072 3072 3071 3070 3069 3068 3068 3067
2963 2968 2972 2973 2975 2976 2977 2978 2981 2982 2985 2988 2992 2996 2999 3002 3005 3010 3014 3017 3021 3024 3027 3029 3031 3034 3036 3036 3037 3039 3041 3044 3046 3046 3047 3048 3050 3051 3052 3054 3057 3058 3058 3059 3060 3061 3063 3066 3067 3067 3068 3069 3070 3071 3072 3072 3072 3072 3073 3074 3074 3073 3073 3073 3073 3072 3073 3073 3073 3073 3074 3073 3073 3073 3072 3071 3071 3070 3069 3069 3068 3067 3067 3066 3065
2958 2961 2965 2967 2968 2970 2971 2973 2976 2978 2980 2983 2987 2990 2993 2997 3000 3004 3008 3012 3015 3018 3021 3024 3027 3030 3030 3031 3033 3035 3036 3038 3041 3042 3042 3044 3045 3046 3047 3050 3051 3053 3054 3054 3055 3057 3060 3063 3063 3063 3064 3066 3067 3068 3068 3068 3069 3069 3070 3070 3070 3070 3070 3070 3070 3070 3070 3070 3070 3070 3071 3071 3071 3070 3070 3069 3069 3068 3067 3067 3066 3065 3065 3064 3063
2955 2957 2960 2962 2963 2965 2967 2969 2971 2973 2976 2979 2982 2985 2989 2992 2996 3000 3004 3007 3010 3012 3016 3020 3023 3024 3026 3027 3029 3031 3031 3033 3037 3038 3039 3040 3041 3041 3042 3044 3047 3049 3050 3050 3052 3055 3057 3058 3059 3059 3061 3062 3063 3065 3065 3065 3065 3066 3066 3067 3067 3067 3067 3067 3067 3067 3067 3067 3068 3068 3068 3068 3068 3068 3067 3067 3066 3066 3065 3064 3064 3064 3063 3062 3061
2953 2954 2955 2956 2958 2960 2962 2964 2966 2969 2971 2974 2977 2981 2985 2988 2992 2996 2999 3002 3005 3009 3014 3017 3019 3021 3023 3024 3025 3027 3028 3030 3033 3034 3035 3036 3037 3037 3038 3041 3043 3045 3046 3047 3049 3052 3053 3054 3054 3056 3058 3059 3060 3061 3061 3061 3062 3062 3063 3063 3064 3064 3065 3065 3065 3064 3064 3064 3065 3065 3065 3066 3065 3065 3065 3064 3064 3063 3063 3062 3062 3061 3061 3060 3059
2951 2950 2951 2953 2955 2957 2958 2960 2962 2964 2967 2970 2973 2977 2981 2984 2988 2991 2995 2998 3003 3007 3011 3014 3016 3018 3019 3020 3021 3023 3024 3026 3028 3028 3029 3031 3032 3033 3035 3037 3039 3041 3042 3043 3045 3047 3048 3049 3051 3052 3054 3056 3056 3057 3057 3058 3058 3059 3060 3060 3060 3061 3062 3062 3062 3062 3062 3062 3062 3062 3062 3063 3063 3062 3062 3062 3061 3061 3060 3060 3060 3059 3059 3058 3057
2948 2948 2950 2952 2953 2954 2955 2956 2958 2961 2964 2967 2969 2973 2976 2980 2984 2988 2992 2996 3000 3003 3006 3008 3011 3013 3014 3014 3016 3018 3019 3020 3021 3022 3024 3026 3027 3029 3031 3033 3034 3035 3037 3038 3039 3042 3044 3046 3047 3049 3051 3052 3052 3053 3054 3054 3055 3056 3056 3057 3057 3058 3059 3059 3059 3059 3059 3059 3059 3059 3059 3060 3060 3060 3059 3059 3059 3059 3058 3058 3057 3057 3057 3056 3055
2948 2948 2949 2951 2951 2951 2952 2953 2955 2957 2960 2962 2965 2969 2973 2977 2981 2985 2990 2993 2996 2999 3001 3003 3005 3007 3008 3009 3011 3012 3013 3015 3016 3017 3019 3021 3023 3024 3027 3029 3030 3031 3032 3033 3035 3038 3040 3042 3043 3045 3047 3048 3049 3050 3050 3051 3052 3053 3053 3054 3054 3055 3056 3056 3056 3056 3056 3056 3056 3056 3056 3057 3057 3057 3057 3057 3057 3057 3056 3056 3055 3055 3055 3054 3053
2948 2947 2948 2949 2949 2949 2949 2950 2951 2953 2956 2959 2962 2966 2970 2974 2979 2983 2987 2989 2992 2994 2996 2998 3000 3001 3003 3005 3006 3008 3009 3011 3012 3013 3014 3016 3018 3020 3023 3025 3026 3026 3027 3028 3032 3036 3037 3038 3040 3041 3043 3045 3046 3047 3048 3049 3049 3050 3050 3050 3051 3052 3053 3053 3053 3053 3053 3053 3053 3053 3054 3054 3054 3055 3055 3055 3054 3054 3054 3054 3054 3053 3052 3051 3051
2947 2947 2947 2948 2948 2948 2949 2950 2950 2952 2954 2956 2959 2963 2968 2972 2976 2980 2983 2985 2987 2988 2990 2992 2994 2996 2997 2999 3001 3003 3005 3007 3008 3009 3010 3011 3013 3015 3018 3020 3022 3022 3023 3026 3030 3032 3033 3034 3036 3038 3040 3042 3043 3044 3045 3046 3046 3046 3047 3047 3048 3049 3049 3049 3050 3050 3050 3050 3050 3050 3051 3051 3051 3052 3052 3052 3052 3052 3052 3052 3051 3051 3050 3049 3049
2946 2947 2948 2948 2947 2948 2948 2949 2950 2951 2953 2954 2957 2961 2965 2969 2972 2975 2978 2981 2982 2984 2986 2987 2989 2991 2993 2995 2998 3000 3002 3003 3003 3004 3005 3006 3008 3010 3012 3013 3015 3016 3018 3021 3025 3027 3028 3030 3032 3034 3037 3039 3040 3041 3042 3043 3043 3043 3043 3044 3045 3046 3046 3046 3046 3047 3047 3047 3047 3047 3047 3048 3048 3049 3049 3049 3049 3049 3049 3049 3049 3048 3048 3047 3046
2947 2948 2948 2947 2947 2946 2945 2945 2948 2951 2952 2953 2956 2959 2962 2965 2968 2971 2973 2976 2977 2979 2981 2982 2985 2988 2990 2992 2994 2996 2997 2998 2999 3000 3001 3002 3004 3005 3006 3008 3010 3012 3014 3018 3021 3023 3025 3027 3028 3031 3033 3035 3036 3038 3038 3039 3040 3040 3040 3041 3042 3042 3042 3043 3043 3043 3044 3044 3044 3044 3044 3045 3045 3045 3046 3046 3046 3046 3046 3046 3046 3046 3045 3045 3044
2945 2946 2947 2946 2946 2946 2945 2944 2946 2949 2951 2953 2955 2957 2959 2962 2964 2967 2969 2971 2973 2974 2975 2977 2980 2984 2986 2987 2989 2991 2992 2993 2995 2996 2998 2999 3001 3001 3003 3004 3006 3008 3011 3014 3018 3019 3021 3023 3025 3028 3030 3032 3033 3034 3035 3035 3036 3036 3037 3038 3039 3039 3039 3040 3040 3040 3041 3041 3041 3041 3041 3041 3042 3042 3042 3043 3043 3043 3043 3043 3043 3043 3043 3042 3042
2941 2943 2943 2943 2944 2945 2945 2945 2946 2948 2950 2952 2953 2955 2957 2959 2961 2964 2966 2967 2969 2970 2971 2972 2976 2980 2982 2983 2984 2986 2987 2988 2989 2991 2993 2994 2995 2997 2998 3000 3002 3005 3008 3012 3014 3015 3017 3019 3021 3024 3027 3028 3029 3030 3031 3032 3032 3033 3033 3034 3035 3036 3036 3037 3037 3037 3037 3038 3038 3038 3038 3038 3039 3039 3039 3040 3040 3041 3041 3041 3040 3040 3040 3039 3039
2937 2938 2939 2939 2940 2942 2943 2944 2944 2946 2947 2949 2950 2952 2954 2956 2958 2960 2962 2963 2964 2965 2966 2968 2972 2975 2977 2978 2979 2980 2981 2982 2984 2986 2988 2989 2991 2992 2994 2996 2999 3002 3005 3008 3009 3011 3013 3015 3018 3022 3024 3025 3025 3026 3027 3027 3028 3029 3030 3030 3031 3033 3033 3033 3034 3034 3035 3035 3035 3035 3035 3035 3036 3036 3037 3037 3038 3038 3038 3038 3038 3037 3037 3037 3037
2933 2934 2934 2935 2936 2937 2939 2940 2941 2942 2943 2944 2946 2948 2950 2952 2953 2955 2957 2958 2959 2961 2962 2964 2967 2970 2972 2973 2974 2975 2976 2978 2980 2982 2984 2986 2987 2989 2991 2994 2996 2998 3001 3004 3006 3008 3010 3013 3016 3019 3020 3020 3021 3022 3023 3023 3024 3025 3026 3027 3028 3029 3029 3030 3031 3031 3031 3032 3032 3032 3032 3032 3033 3033 3034 3035 3035 3035 3036 3035 3035 3035 3034 3034 3034
2930 2930 2930 2931 2932 2933 2934 2935 2936 2937 2939 2940 2942 2943 2945 2947 2948 2950 2952 2953 2955 2956 2958 2959 2962 2964 2967 2969 2969 2970 2972 2974 2976 2978 2980 2982 2984 2986 2988 2991 2993 2996 2998 3001 3004 3006 3008 3011 3013 3015 3016 3017 3018 3018 3019 3019 3020 3022 3022 3023 3024 3025 3026 3026 3027 3028 3028 3028 3029 3029 3029 3029 3030 3030 3031 3032 3032 3032 3033 3033 3032 3032 3032 3032 3032
2927 2927 2927 2927 2928 2928 2929 2930 2931 2932 2934 2935 2937 2938 2940 2942 2943 2945 2947 2948 2950 2952 2953 2954 2956 2960 2962 2963 2964 2966 2967 2969 2971 2973 2975 2978 2980 2983 2985 2988 2990 2993 2996 2998 3001 3004 3007 3008 3010 3011 3012 3013 3014 3015 3015 3017 3018 3019 3019 3020 3021 3022 3023 3023 3024 3025 3025 3025 3026 3026 3026 3026 3027 3028 3028 3029 3029 3030 3030 3030 3029 3029 3029 3029 3029
2927 2926 2925 2925 2925 2925 2925 2925 2926 2927 2929 2930 2932 2933 2935 2936 2938 2940 2941 2943 2945 2946 2947 2949 2952 2955 2958 2959 2960 2961 2962 2964 2966 2968 2970 2973 2976 2979 2982 2985 2987 2990 2992 2995 2998 3001 3003 3005 3007 3007 3008 3010 3011 3011 3012 3014 3015 3015 3016 3017 3018 3019 3020 3020 3021 3022 3022 3022 3023 3023 3023 3023 3024 3025 3025 3026 3027 3027 3027 3027 3026 3026 3026 3026 3026
2927 2926 2925 2924 2924 2923 2923 2922 2923 2924 2925 2926 2927 2928 2930 2931 2933 2934 2936 2938 2939 2940 2942 2945 2948 2951 2953 2954 2955 2956 2958 2960 2962 2964 2966 2969 2973 2975 2978 2981 2984 2986 2989 2992 2995 2997 2999 3000 3002 3003 3004 3006 3008 3008 3009 3010 3011 3012 3013 3014 3015 3016 3017 3018 3018 3019 3019 3019 3019 3020 3021 3021 3021 3022 3022 3023 3024 3024 3023 3024 3023 3023 3023 3023 3023
2927 2926 2925 2924 2923 2923 2922 2921 2921 2921 2921 2922 2924 2925 2926 2927 2929 2930 2931 2932 2934 2936 2938 2941 2944 2946 2948 2950 2950 2952 2954 2957 2960 2962 2964 2967 2970 2973 2975 2979 2982 2985 2987 2989 2992 2994 2995 2997 2999 3000 3001 3003 3005 3005 3006 3007 3008 3009 3010 3012 3013 3014 3014 3015 3015 3015 3016 3017 3017 3017 3018 3018 3019 3019 3019 3020 3020 3021 3020 3020 3020 3020 3020 3020 3020
2927 2926 2926 2925 2924 2923 2923 2922 2921 2920 2919 2920 2921 2922 2922 2923 2924 2925 2927 2928 2929 2931 2934 2937 2939 2941 2943 2944 2946 2949 2952 2954 2957 2959 2962 2965 2968 2972 2974 2977 2980 2983 2985 2987 2989 2991 2993 2995 2997 2998 2999 3000 3001 3002 3002 3004 3005 3007 3008 3009 3010 3011 3011 3011 3012 3012 3013 3014 3014 3014 3015 3015 3016 3016 3016 3017 3017 3017 3017 3017 3017 3017 3017 3017 3018
2928 2928 2927 2926 2925 2924 2923 2923 2922 2921 2921 2920 2920 2920 2920 2920 2921 2922 2922 2923 2925 2927 2929 2932 2934 2936 2938 2941 2944 2947 2950 2953 2955 2957 2960 2963 2967 2970 2972 2974 2978 2980 2982 2984 2986 2987 2989 2991 2993 2994 2995 2995 2996 2998 2999 3001 3002 3003 3005 3006 3007 3007 3008 3008 3009 3009 3010 3010 3010 3011 3011 3012 3013 3013 3013 3013 3013 3014 3014 3014 3014 3014 3015 3015 3015
2929 2928 2928 2927 2926 2925 2924 2923 2923 2922 2922 2922 2922 2922 2921 2921 2922 2922 2922 2922 2923 2925 2926 2928 2930 2933 2936 2939 2943 2947 2949 2952 2954 2957 2959 2962 2965 2967 2970 2973 2976 2978 2979 2980 2982 2983 2985 2987 2989 2990 2991 2992 2993 2994 2996 2997 2998 3000 3001 3002 3003 3004 3005 3005 3006 3006 3007 3007 3007 3008 3008 3009 3010 3010 3010 3010 3010 3010 3011 3011 3011 3011 3011 3012 3012
2929 2929 2929 2928 2927 2927 2926 2925 2925 2924 2924 2924 2924 2924 2924 2924 2924 2924 2924 2924 2925 2926 2928 2929 2931 2933 2936 2939 2943 2946 2949 2951 2954 2957 2959 2962 2964 2966 2969 2972 2974 2975 2976 2978 2980 2981 2983 2985 2986 2988 2989 2989 2990 2992 2993 2994 2995 2997 2998 2998 2999 3001 3001 3001 3002 3003 3004 3004 3004 3005 3005 3006 3006 3006 3007 3008 3008 3007 3007 3008 3008 3008 3008 3008 3009
2929 2929 2929 2928 2928 2928 2927 2927 2927 2926 2925 2925 2925 2925 2926 2926 2926 2927 2927 2927 2928 2929 2931 2932 2934 2936 2939 2941 2944 2946 2949 2951 2954 2956 2959 2961 2963 2965 2967 2969 2971 2973 2974 2976 2977 2979 2981 2982 2984 2985 2986 2987 2988 2990 2991 2992 2993 2994 2995 2996 2997 2998 2998 2998 2999 3000 3001 3001 3001 3002 3002 3003 3003 3003 3003 3004 3004 3004 3004 3004 3005 3005 3005 3005 3005
2930 2929 2929 2929 2929 2928 2927 2927 2928 2927 2927 2927 2927 2927 2927 2927 2928 2928 2929 2930 2931 2932 2933 2934 2936 2938 2940 2942 2944 2946 2948 2950 2953 2955 2957 2959 2961 2963 2965 2967 2969 2970 2972 2974 2975 2976 2978 2979 2981 2982 2983 2984 2986 2987 2988 2989 2990 2991 2993 2994 2995 2995 2995 2996 2996 2997 2998 2998 2999 2999 2999 3000 3000 3000 3000 3000 3000 3000 3001 3001 3001 3001 3001 3001 3002